Location: Champs
(48.8539°N, 2.6040°E)
Time: 16:53:26
(UTC+00:00)

Cosmos 2056 Rocket - Pass Details

Date: 02 June 2022
Orbit: 741 x 801 km, 74.0° (Epoch: 01 July)

Event Time Altitude Azimuth Distance (km) Brightness Sun altitude
Exits shadow 02:46:55 11° 217° (SW) 2,258 5.2 -8.5°
Maximum altitude 02:51:58 60° 297° (WNW) 885 3.8 -7.9°
Drops below altitude 10° 02:57:15 10° 17° (NNE) 2,350 7.2 -7.4°
Sets 02:59:43 0° 22° (NNE) 3,291 8.3 -7.1°
